Location: Seagrave Observatory
(41.8500°N, 71.5833°W)
Time: 09:53:24
(UTC-04:00)

Daily predictions for brighter satellites

Satellite Brightness Start Highest point End
(mag) Time Altitude Azimuth Time Altitude Azimuth Time Altitude Azimuth
SL-16 R/B 2.4 18:56:15 10° S 19:01:41 49° ESE 19:07:09 10° NE
MSX 4.3 19:01:40 10° S 19:07:21 67° WSW 19:13:06 10° NNW
ATLAS 3B R/B 4.1 19:02:56 10° WSW 19:10:06 43° NW 19:17:06 10° NNE
Cosmos 292 Rocket 4.1 19:06:09 10° SSW 19:10:56 73° WNW 19:15:46 10° NNE
Meteor 1-29 4.3 19:08:24 10° NE 19:11:07 21° E 19:13:49 10° SE
Cosmos 2346 Rocket 4.5 19:06:41 10° N 19:12:47 88° E 19:18:49 10° S
Cosmos 1953 3.4 19:11:55 10° SE 19:15:09 24° E 19:18:22 10° NE
Spot 1 4.4 19:12:21 10° SSE 19:16:59 52° ENE 19:21:22 10° N
SeaSat 1 4.0 19:17:49 10° ENE 19:20:35 15° ESE 19:23:20 10° SE
Cosmos 1452 Rocket 4.0 19:16:03 10° N 19:21:00 40° ENE 19:25:55 10° SE
Helios 1A 3.4 19:17:09 10° SE 19:21:04 40° ENE 19:25:00 10° N
Cosmos 2219 Rocket 4.0 19:16:25 10° WSW 19:21:31 34° WNW 19:26:40 10° N
METEOR-M 4.2 19:17:44 10° SSE 19:23:00 60° ENE 19:28:16 10° N
COSMO-SKYMED 1 3.7 19:21:40 10° N 19:25:52 48° WNW 19:30:02 10° SW
Cosmos 2278 Rocket 3.5 19:20:58 10° NW 19:26:18 44° WSW 19:31:37 10° S
Cosmos 1805 4.0 19:22:55 10° SSE 19:26:24 31° E 19:29:55 10° NNE
Meteor 1-22 Rocket 4.1 19:21:36 10° S 19:26:58 86° E 19:32:17 10° N
NOSS 3-2 (A) 3.4 19:20:59 10° SSW 19:26:59 71° ESE 19:33:33 10° NE
H-2A R/B 4.1 19:25:54 13° ESE 19:28:10 21° ENE 19:31:09 10° NNE
Cosmos 1378 3.0 19:25:13 10° N 19:28:58 83° E 19:32:41 10° S
Cosmos 1544 4.3 19:27:15 10° SE 19:30:11 22° E 19:33:09 10° NE
ALOS 3.0 19:26:48 10° SE 19:30:58 33° ENE 19:35:10 10° N
Cosmos 2297 3.8 19:25:35 10° NNW 19:31:17 82° WSW 19:36:55 10° SSE
Meteor 1-28 Rocket 3.2 19:27:45 10° N 19:31:30 86° WNW 19:35:12 10° SSW
FENGYUN 3A 4.2 19:26:54 10° SE 19:31:46 37° ENE 19:36:41 10° N
OAO 3 Rocket 4.1 19:27:58 10° WSW 19:32:16 34° S 19:35:32 16° ESE
ATLAS CENTAUR R/B 3.6 19:27:55 10° SSW 19:32:47 72° SE 19:48:24 10° NE
CZ-4B DEB 3.8 19:33:12 17° ESE 19:34:53 27° ENE 19:37:42 10° NNE
CZ-4C R/B 3.4 19:30:43 10° WSW 19:35:49 42° NW 19:41:36 10° NNE
Meteor 1-24 Rocket 4.0 19:31:05 10° NNW 19:36:44 70° W 19:42:08 10° S
Cosmos 2034 Rocket 4.0 19:38:30 10° S 19:44:39 64° E 19:50:55 10° NNE
Cosmos 2369 Rocket 3.5 19:40:45 10° N 19:45:04 22° NE 19:47:06 18° E
Cosmos 1766 Rocket 3.4 19:42:26 10° N 19:46:50 75° E 19:51:10 10° SSE
SJ-6B 4.0 19:43:03 10° S 19:46:51 46° W 19:50:46 10° NNW
Cosmos 1464 Rocket 4.0 19:40:57 10° S 19:47:12 89° E 19:53:26 10° N
Cosmos 1470 4.3 19:49:12 18° ENE 19:49:12 18° ENE 19:50:53 10° NE
Timation 1 Rocket 4.4 19:42:21 10° NNW 19:48:20 84° WSW 19:54:18 10° SSE
FREGAT/IRIS 3.9 19:45:48 10° S 19:48:46 44° W 19:51:46 10° NNW
Cosmos 1603 4.0 19:43:30 10° S 19:48:54 45° ESE 19:54:20 10° NE
Cosmos 1943 Rocket 4.1 19:50:17 10° NNE 19:52:32 12° NE 19:53:43 12° ENE
Cosmos 1758 3.2 19:52:27 10° S 19:56:31 77° E 20:00:38 10° N
Cosmos 1269 Rocket 4.3 19:54:21 10° S 19:59:20 43° ESE 20:04:19 10° NNE
Spot 2 Rocket 3.8 19:56:52 10° S 20:01:52 67° WSW 20:06:54 10° NNW
Cosmos 1076 Rocket 4.2 19:59:28 10° NNW 20:03:43 57° W 20:07:58 10° S
Cosmos 1048 Rocket 4.4 19:58:53 10° S 20:03:50 41° ESE 20:08:44 10° NE
FengYun 1-2 T 4.2 19:58:28 10° SSE 20:03:59 86° WSW 20:09:31 10° NNW
NOSS 3-2 (C) 3.5 19:58:32 10° SW 20:04:37 82° NW 20:11:19 10° NE
CENTAUR R/B 3.2 19:59:40 10° SSE 20:04:41 28° ESE 20:05:41 27° E
ASTEX 1 3.4 20:00:27 10° NNE 20:05:17 55° E 20:10:04 10° S
Helios 1B rocket 2.8 20:01:35 10° N 20:05:39 65° WNW 20:09:43 10° SSW
Cosmos-2242 3.0 20:04:31 10° S 20:08:51 88° W 20:13:16 10° N
SL-8 R/B 4.2 20:06:44 10° SSW 20:11:08 38° SE 20:11:40 37° SE
Envisat 4.1 20:13:04 25° ENE 20:13:04 25° ENE 20:16:58 10° NNE
Cosmos 1674 2.7 20:13:04 10° N 20:16:54 54° E 20:16:58 54° E
Cosmos 1842 Rocket 3.5 20:18:06 37° SSE 20:19:29 56° E 20:23:46 10° NNE
Meteor 1-21 Rocket 4.3 20:14:15 10° NNW 20:19:50 79° W 20:25:20 10° S
Cosmos 1500 Rocket 3.5 20:16:42 10° N 20:21:05 61° E 20:21:56 50° SE
Atlas Centaur 2 4.5 20:15:09 10° WSW 20:21:38 25° SSW 20:26:10 15° SSE
Cosmos 2151 4.2 20:21:35 10° N 20:24:01 27° NE 20:24:01 27° NE
Cosmos 1346 3.8 20:25:31 10° NNW 20:28:07 50° WNW 20:28:07 50° WNW
ATLAS CENTAUR R/B 4.5 20:28:19 10° W 20:29:08 11° WSW 20:29:57 10° WSW
Resurs 01 Rocket 3.5 20:28:22 10° SSW 20:32:17 30° W 20:36:13 10° NW
ATLAS 5 CENTAUR R/B 2.6 20:29:52 10° SW 20:34:34 54° NW 20:39:43 10° NNE
USA 215 3.7 20:31:30 10° NE 20:37:55 60° NW 20:44:19 10° WSW
CZ-2D R/B 4.3 20:43:00 32° SSW 20:44:21 45° W 20:48:07 10° NNW
SL-16 R/B 4.3 20:41:18 10° WSW 20:46:02 27° NW 20:50:50 10° N
ERS-1 Rocket 3.1 20:54:53 60° NNE 20:54:53 60° NNE 20:59:14 10° N
Cosmos 1655 Rocket 3.9 20:50:58 10° N 20:57:04 62° ENE 20:57:04 62° ENE
SeaSat 1 2.6 20:53:36 10° NNE 20:58:33 72° WNW 21:03:27 10° SW
GP-B 3.5 20:57:21 10° N 21:01:21 61° NW 21:01:21 61° NW
BREEZE-M DEB (TANK) 3.2 20:52:09 10° WNW 21:02:13 66° N 21:02:28 64° NNE
Cosmos 1092 Rocket 4.4 20:56:54 10° NNW 21:03:01 61° W 21:06:37 25° SSW
Cosmos 839 Rocket 4.0 21:00:13 10° NNW 21:07:59 82° ENE 21:08:43 72° ESE
ALOS 4.3 21:04:36 10° SSW 21:08:26 25° W 21:12:17 10° NW
Cosmos 1634 Rocket 4.3 21:11:36 10° SSW 21:17:47 64° W 21:23:57 10° N
Cosmos 2026 Rocket 3.9 21:12:36 10° N 21:18:43 82° W 21:18:46 82° WSW
H-2A R/B 4.4 21:31:47 19° N 21:31:47 19° N 21:33:06 10° N
Cosmos 2369 Rocket 2.7 21:23:58 10° NNW 21:28:54 58° WNW 21:28:54 58° WNW
CZ-3A R/B 4.5 20:55:29 10° SSW 21:31:34 59° SE 21:32:25 58° ESE
Cosmos 1943 Rocket 3.3 21:31:47 10° NNW 21:35:15 38° N 21:35:15 38° N
CENTAUR R/B 3.4 21:48:50 10° SW 21:59:44 19° NNE 22:01:39 10° NNE
